Weather in Serafimovsky

Russia / Republic of Bashkortostan     54°25′21″N   53°47′24″E
В апреле 2022 года жителям России запретили посещать сайт meteo.paraplan.net по решению Генеральной прокуратуры. Аудитория сайта уменьшилась в 10 раз. Владельцы сайта не видят смысла в поддержке погодного сервера в таких условиях. Сайт будет закрыт в октябре.
temp.,
°C
wind,
m/s
gust,
m/s
humid.,
%
clouds,
%
prec.,
mm/h
press.,
hPa
HPBL,
m
30 september, fri
fri3023:00+5se51091100 1.8 1019458
02:00+4ese4991100 0.6 1020452
05:00+4ese4891100 0.6 1021438
08:00+4se4891100 0.0 1023409
11:00+5se4687100 0.1 1024421
14:00+6ese4686100 0.0 1025495
17:00+6ese5785100 0.0 1026495
20:00+5ese4888100 0.0 1027387
1 october, sat
sat123:00+5se4886100 0.0 1027360
02:00+5ese368496 0.0 1027302
05:00+4se2589100 0.0 1028164
08:00+4se2689100 0.0 1028204
11:00+8sse476693 0.0 1027470
14:00+13sse575080 0.0 1026802
17:00+12sse57505 0.0 1026795
20:00+8sse39645 0.0 1026223
2 october, sun
sun223:00+6sse38655 0.0 1025193
02:00+6sse37695 0.0 1024157
05:00+6sse310675 0.0 1023210
08:00+7s4136633 0.0 1022319
11:00+12s7134898 0.0 1022522
14:00+15s7124253 0.0 1020700
17:00+15s7124625 0.0 1020807
20:00+13s6165457 0.0 1020538
3 october, mon
mon323:00+13s71655100 0.0 1019492
02:00+12s7165595 0.1 1019510
05:00+11s6155276 0.1 1019468
08:00+11s71556100 0.0 1020453
11:00+13s6155997 0.1 1020517
14:00+13s6145099 0.0 1021558
17:00+17s6114387 0.0 1021952
20:00+14s5125020 0.0 1023349
4 october, tue
tue423:00+13s5144458 0.0 1025413
02:00+12s5144249 0.0 1025373
05:00+10s4134310 0.0 1026350
08:00+9s413455 0.0 1028354
11:00+13s612355 0.0 1028651
14:00+16sse7103029 0.0 10281051
17:00+15sse6931100 0.0 10281132
20:00+11sse3937100 0.0 1030232